 ,�O�C���x[��],����1,�O�C���x[��],����2,���ԉ��x[��],����3,���Ԏ��x[��],����4,�m��2(��󒲎�)���x[��],����5,����[��],����6
2003/10/1 0:00,16.8,0 ,40,0 ,23.8,0 ,53,0 ,23.2,0 ,20.9,0
2003/10/1 0:15,16.1,0 ,42,0 ,23.8,0 ,54,0 ,23.1,0 ,20.9,0
2003/10/1 0:30,15.7,0 ,43,0 ,23.7,0 ,52,0 ,23,0 ,21,0
2003/10/1 0:45,15.6,0 ,43,0 ,23.7,0 ,54,0 ,23,0 ,21,0
2003/10/1 1:00,15.8,0 ,43,0 ,23.6,0 ,51,0 ,22.9,0 ,21.1,0
2003/10/1 1:15,16.2,0 ,45,0 ,23.7,0 ,53,0 ,22.8,0 ,21.1,0
2003/10/1 1:30,16.4,0 ,46,0 ,23.5,0 ,51,0 ,22.8,0 ,21.2,0
2003/10/1 1:45,16.4,0 ,45,0 ,23.6,0 ,52,0 ,22.7,0 ,21.2,0
2003/10/1 2:00,16.4,0 ,44,0 ,23.4,0 ,50,0 ,22.7,0 ,21.2,0
2003/10/1 2:15,16.5,0 ,44,0 ,23.5,0 ,53,0 ,22.6,0 ,21.3,0
2003/10/1 2:30,16.2,0 ,43,0 ,23.4,0 ,50,0 ,22.6,0 ,21.3,0
2003/10/1 2:45,16.1,0 ,46,0 ,23.5,0 ,52,0 ,22.5,0 ,21.4,0
2003/10/1 3:00,15.5,0 ,49,0 ,23.4,0 ,50,0 ,22.5,0 ,21.4,0
2003/10/1 3:15,15.2,0 ,49,0 ,23.4,0 ,52,0 ,22.5,0 ,21.4,0
2003/10/1 3:30,15.3,0 ,48,0 ,23.3,0 ,50,0 ,22.4,0 ,21.5,0
2003/10/1 3:45,15.5,0 ,50,0 ,23.4,0 ,52,0 ,22.4,0 ,21.4,0
2003/10/1 4:00,15.1,0 ,52,0 ,23.2,0 ,49,0 ,22.4,0 ,21.4,0
2003/10/1 4:15,14.9,0 ,54,0 ,23.4,0 ,51,0 ,22.3,0 ,21.4,0
2003/10/1 4:30,14.8,0 ,55,0 ,23.2,0 ,49,0 ,22.3,0 ,21.5,0
2003/10/1 4:45,14.7,0 ,56,0 ,23.3,0 ,51,0 ,22.2,0 ,21.5,0
2003/10/1 5:00,14.6,0 ,57,0 ,23.2,0 ,49,0 ,22.2,0 ,21.5,0
2003/10/1 5:15,14.4,0 ,58,0 ,23.3,0 ,52,0 ,22.3,0 ,21.6,0
2003/10/1 5:30,14.4,0 ,59,0 ,23.2,0 ,49,0 ,22.2,0 ,21.4,0
2003/10/1 5:45,14.5,0 ,61,0 ,23.3,0 ,52,0 ,22.3,0 ,21.5,0
2003/10/1 6:00,14.5,0 ,62,0 ,23.2,0 ,51,0 ,22.5,0 ,21.5,0
2003/10/1 6:15,14.4,0 ,61,0 ,23.5,0 ,61,0 ,22.7,0 ,21,0
2003/10/1 6:30,14.5,0 ,59,0 ,23.4,0 ,55,0 ,22.7,0 ,21.1,0
2003/10/1 6:45,15.3,0 ,52,0 ,23.8,0 ,56,0 ,22.7,0 ,20.2,0
2003/10/1 7:00,16.6,0 ,44,0 ,23.8,0 ,52,0 ,22.7,0 ,20.3,0
2003/10/1 7:15,18,0 ,41,0 ,24.2,0 ,53,0 ,22.7,0 ,20.3,0
2003/10/1 7:30,18.9,0 ,38,0 ,23.9,0 ,47,0 ,22.7,0 ,20.1,0
2003/10/1 7:45,19.3,0 ,37,0 ,24.1,0 ,51,0 ,22.7,0 ,20.1,0
2003/10/1 8:00,19.7,0 ,36,0 ,24,0 ,49,0 ,22.7,0 ,20.2,0
2003/10/1 8:15,20.3,0 ,35,0 ,24.2,0 ,52,0 ,22.7,0 ,20.3,0
2003/10/1 8:30,21,0 ,34,0 ,24.1,0 ,49,0 ,22.7,0 ,20.3,0
2003/10/1 8:45,21.7,0 ,34,0 ,24.2,0 ,52,0 ,22.7,0 ,20.4,0
2003/10/1 9:00,21.7,0 ,34,0 ,24,0 ,50,0 ,22.7,0 ,20.4,0
2003/10/1 9:15,21.7,0 ,32,0 ,24,0 ,52,0 ,22.7,0 ,20.5,0
2003/10/1 9:30,22.3,0 ,30,0 ,23.8,0 ,50,0 ,22.7,0 ,20.5,0
2003/10/1 9:45,22.3,0 ,30,0 ,23.9,0 ,52,0 ,22.7,0 ,20.6,0
2003/10/1 10:00,22.4,0 ,29,0 ,23.7,0 ,49,0 ,22.6,0 ,20.6,0
2003/10/1 10:15,22.3,0 ,28,0 ,23.8,0 ,51,0 ,22.6,0 ,20.7,0
2003/10/1 10:30,22.6,0 ,26,0 ,23.6,0 ,49,0 ,22.6,0 ,20.7,0
2003/10/1 10:45,22.7,0 ,27,0 ,23.8,0 ,51,0 ,22.6,0 ,20.8,0
2003/10/1 11:00,22.5,0 ,27,0 ,23.6,0 ,49,0 ,22.6,0 ,20.8,0
2003/10/1 11:15,22.6,0 ,27,0 ,23.8,0 ,51,0 ,22.5,0 ,20.9,0
2003/10/1 11:30,22.5,0 ,27,0 ,23.6,0 ,48,0 ,22.5,0 ,20.9,0
2003/10/1 11:45,22.7,0 ,27,0 ,23.7,0 ,51,0 ,22.5,0 ,20.9,0
2003/10/1 12:00,22.8,0 ,27,0 ,23.5,0 ,48,0 ,22.5,0 ,21,0
2003/10/1 12:15,23.2,0 ,27,0 ,23.7,0 ,50,0 ,22.5,0 ,21,0
2003/10/1 12:30,23.2,0 ,27,0 ,23.6,0 ,48,0 ,22.5,0 ,21.1,0
2003/10/1 12:45,23.2,0 ,27,0 ,23.7,0 ,50,0 ,22.5,0 ,21.1,0
2003/10/1 13:00,23.3,0 ,26,0 ,23.5,0 ,48,0 ,22.5,0 ,21.1,0
2003/10/1 13:15,23.2,0 ,27,0 ,23.7,0 ,50,0 ,22.5,0 ,21.2,0
2003/10/1 13:30,23,0 ,27,0 ,23.5,0 ,48,0 ,22.5,0 ,21.2,0
2003/10/1 13:45,23.1,0 ,28,0 ,23.7,0 ,50,0 ,22.4,0 ,21.3,0
2003/10/1 14:00,23.2,0 ,29,0 ,23.5,0 ,48,0 ,22.4,0 ,21.3,0
2003/10/1 14:15,23.2,0 ,32,0 ,23.7,0 ,50,0 ,22.4,0 ,21.3,0
2003/10/1 14:30,22.7,0 ,34,0 ,23.5,0 ,48,0 ,22.4,0 ,21.4,0
2003/10/1 14:45,21.9,0 ,35,0 ,23.6,0 ,50,0 ,22.4,0 ,21.4,0
2003/10/1 15:00,21.4,0 ,36,0 ,23.5,0 ,48,0 ,22.4,0 ,21.4,0
2003/10/1 15:15,21.1,0 ,37,0 ,23.6,0 ,51,0 ,22.4,0 ,21.4,0
2003/10/1 15:30,21.2,0 ,37,0 ,23.4,0 ,48,0 ,22.4,0 ,21.5,0
2003/10/1 15:45,21.3,0 ,40,0 ,23.6,0 ,50,0 ,22.3,0 ,21.5,0
2003/10/1 16:00,21.3,0 ,43,0 ,23.4,0 ,48,0 ,22.3,0 ,21.5,0
2003/10/1 16:15,21.3,0 ,45,0 ,23.5,0 ,51,0 ,22.3,0 ,21.6,0
2003/10/1 16:30,20.9,0 ,47,0 ,23.3,0 ,49,0 ,22.3,0 ,21.6,0
2003/10/1 16:45,20.8,0 ,46,0 ,23.5,0 ,51,0 ,22.3,0 ,21.6,0
2003/10/1 17:00,20.9,0 ,44,0 ,23.3,0 ,49,0 ,22.3,0 ,21.6,0
2003/10/1 17:15,20.9,0 ,50,0 ,23.4,0 ,51,0 ,22.3,0 ,21.7,0
2003/10/1 17:30,21,0 ,56,0 ,23.2,0 ,49,0 ,22.3,0 ,21.7,0
2003/10/1 17:45,19.8,0 ,56,0 ,23.4,0 ,52,0 ,22.2,0 ,21.7,0
2003/10/1 18:00,19.8,0 ,55,0 ,23.2,0 ,50,0 ,22.2,0 ,21.8,0
2003/10/1 18:15,19.8,0 ,55,0 ,23.4,0 ,52,0 ,22.2,0 ,21.8,0
2003/10/1 18:30,19.7,0 ,55,0 ,23.2,0 ,51,0 ,22.2,0 ,21.8,0
2003/10/1 18:45,19.6,0 ,56,0 ,23.6,0 ,63,0 ,22.6,0 ,21.8,0
2003/10/1 19:00,19.4,0 ,57,0 ,23.5,0 ,61,0 ,22.9,0 ,21.8,0
2003/10/1 19:15,19.2,0 ,61,0 ,23.8,0 ,60,0 ,22.9,0 ,21.9,0
2003/10/1 19:30,18.8,0 ,65,0 ,23.6,0 ,56,0 ,22.8,0 ,21.9,0
2003/10/1 19:45,18.8,0 ,63,0 ,23.7,0 ,58,0 ,22.8,0 ,21.9,0
2003/10/1 20:00,18.7,0 ,60,0 ,23.5,0 ,55,0 ,22.7,0 ,20.1,0
2003/10/1 20:15,18.4,0 ,61,0 ,23.8,0 ,58,0 ,22.7,0 ,20.2,0
2003/10/1 20:30,18.4,0 ,62,0 ,23.6,0 ,56,0 ,22.8,0 ,20,0
2003/10/1 20:45,18.4,0 ,66,0 ,23.8,0 ,58,0 ,22.8,0 ,20,0
2003/10/1 21:00,18.1,0 ,69,0 ,23.7,0 ,58,0 ,22.9,0 ,20.1,0
2003/10/1 21:15,17.9,0 ,69,0 ,23.9,0 ,61,0 ,22.9,0 ,20.2,0
2003/10/1 21:30,17.6,0 ,69,0 ,23.8,0 ,58,0 ,23,0 ,20.2,0
2003/10/1 21:45,17.5,0 ,69,0 ,24.1,0 ,62,0 ,23.1,0 ,20.3,0
2003/10/1 22:00,17.6,0 ,68,0 ,24,0 ,60,0 ,23.3,0 ,20.3,0
2003/10/1 22:15,17.6,0 ,69,0 ,24.2,0 ,62,0 ,23.3,0 ,20.4,0
2003/10/1 22:30,17.5,0 ,70,0 ,24.1,0 ,67,0 ,23.5,0 ,20.2,0
2003/10/1 22:45,17.2,0 ,72,0 ,24.1,0 ,70,0 ,23.6,0 ,20.3,0
2003/10/1 23:00,16.8,0 ,74,0 ,23.9,0 ,66,0 ,23.6,0 ,20.4,0
2003/10/1 23:15,16.8,0 ,75,0 ,24,0 ,69,0 ,23.6,0 ,20.4,0
2003/10/1 23:30,16.5,0 ,75,0 ,23.7,0 ,65,0 ,23.5,0 ,20.3,0
2003/10/1 23:45,16.5,0 ,75,0 ,23.8,0 ,66,0 ,23.4,0 ,20.4,0
2003/10/2 0:00,16.7,0 ,75,0 ,23.6,0 ,63,0 ,23.4,0 ,20.4,0
2003/10/2 0:15,16.7,0 ,77,0 ,23.7,0 ,65,0 ,23.3,0 ,20.5,0
2003/10/2 0:30,16.7,0 ,78,0 ,23.5,0 ,62,0 ,23.2,0 ,20.5,0
2003/10/2 0:45,16.7,0 ,80,0 ,23.6,0 ,64,0 ,23.2,0 ,20.6,0
2003/10/2 1:00,16.4,0 ,81,0 ,23.5,0 ,61,0 ,23.1,0 ,20.7,0
2003/10/2 1:15,16.3,0 ,80,0 ,23.5,0 ,63,0 ,23.1,0 ,20.7,0
2003/10/2 1:30,16.2,0 ,79,0 ,23.4,0 ,60,0 ,23.1,0 ,20.8,0
2003/10/2 1:45,16.2,0 ,79,0 ,23.5,0 ,62,0 ,23,0 ,20.9,0
2003/10/2 2:00,16.2,0 ,79,0 ,23.3,0 ,60,0 ,23,0 ,20.9,0
2003/10/2 2:15,16.1,0 ,82,0 ,23.5,0 ,62,0 ,23,0 ,21,0
2003/10/2 2:30,15.6,0 ,85,0 ,23.3,0 ,59,0 ,22.9,0 ,21,0
2003/10/2 2:45,15.3,0 ,85,0 ,23.5,0 ,61,0 ,22.9,0 ,21.1,0
2003/10/2 3:00,15.3,0 ,84,0 ,23.3,0 ,59,0 ,22.9,0 ,21.1,0
2003/10/2 3:15,15.5,0 ,84,0 ,23.4,0 ,61,0 ,22.9,0 ,21.2,0
2003/10/2 3:30,15.7,0 ,83,0 ,23.2,0 ,58,0 ,22.9,0 ,21.2,0
2003/10/2 3:45,15.8,0 ,83,0 ,23.4,0 ,60,0 ,22.8,0 ,21.2,0
2003/10/2 4:00,15.8,0 ,82,0 ,23.2,0 ,58,0 ,22.8,0 ,21.3,0
2003/10/2 4:15,15.7,0 ,83,0 ,23.4,0 ,60,0 ,22.8,0 ,21.3,0
2003/10/2 4:30,15.7,0 ,84,0 ,23.2,0 ,58,0 ,22.8,0 ,21.4,0
2003/10/2 4:45,15.5,0 ,77,0 ,23.3,0 ,60,0 ,22.7,0 ,21.4,0
2003/10/2 5:00,15.8,0 ,69,0 ,23.2,0 ,57,0 ,22.7,0 ,21.4,0
2003/10/2 5:15,16.1,0 ,74,0 ,23.3,0 ,60,0 ,22.7,0 ,21.5,0
2003/10/2 5:30,16,0 ,78,0 ,23.2,0 ,58,0 ,22.7,0 ,21.5,0
2003/10/2 5:45,15.9,0 ,80,0 ,23.3,0 ,60,0 ,22.7,0 ,21,0
2003/10/2 6:00,15.7,0 ,82,0 ,23.2,0 ,57,0 ,22.7,0 ,21.1,0
2003/10/2 6:15,15.5,0 ,81,0 ,23.3,0 ,63,0 ,22.8,0 ,20.6,0
2003/10/2 6:30,15.4,0 ,80,0 ,23.2,0 ,60,0 ,22.8,0 ,20.4,0
2003/10/2 6:45,15.6,0 ,82,0 ,23.4,0 ,62,0 ,22.8,0 ,20.3,0
2003/10/2 7:00,15.5,0 ,83,0 ,23.2,0 ,59,0 ,22.7,0 ,20.4,0
2003/10/2 7:15,15.4,0 ,80,0 ,23.3,0 ,61,0 ,22.7,0 ,19.5,0
2003/10/2 7:30,15.5,0 ,77,0 ,23.2,0 ,59,0 ,22.7,0 ,19.6,0
2003/10/2 7:45,16.4,0 ,73,0 ,23.3,0 ,61,0 ,22.6,0 ,19.6,0
2003/10/2 8:00,17.3,0 ,69,0 ,23.2,0 ,59,0 ,22.6,0 ,19.7,0
2003/10/2 8:15,18,0 ,64,0 ,23.4,0 ,60,0 ,22.6,0 ,19.8,0
2003/10/2 8:30,18.6,0 ,58,0 ,23.2,0 ,58,0 ,22.6,0 ,19.8,0
2003/10/2 8:45,18.9,0 ,56,0 ,23.4,0 ,60,0 ,22.5,0 ,19.9,0
2003/10/2 9:00,19.2,0 ,53,0 ,23.2,0 ,57,0 ,22.5,0 ,19.9,0
2003/10/2 9:15,19.8,0 ,50,0 ,23.4,0 ,59,0 ,22.5,0 ,20,0
2003/10/2 9:30,21.1,0 ,47,0 ,23.2,0 ,57,0 ,22.5,0 ,20,0
2003/10/2 9:45,21.1,0 ,48,0 ,23.4,0 ,59,0 ,22.5,0 ,20.1,0
2003/10/2 10:00,21.2,0 ,48,0 ,23.2,0 ,56,0 ,22.4,0 ,20.2,0
2003/10/2 10:15,21,0 ,49,0 ,23.3,0 ,58,0 ,22.4,0 ,20.2,0
2003/10/2 10:30,21,0 ,49,0 ,23.2,0 ,56,0 ,22.4,0 ,20.3,0
2003/10/2 10:45,21,0 ,51,0 ,23.3,0 ,58,0 ,22.4,0 ,20.3,0
2003/10/2 11:00,21,0 ,52,0 ,23.2,0 ,56,0 ,22.4,0 ,20.4,0
2003/10/2 11:15,21,0 ,55,0 ,23.3,0 ,58,0 ,22.4,0 ,20.4,0
2003/10/2 11:30,20.9,0 ,57,0 ,23.2,0 ,56,0 ,22.4,0 ,20.5,0
2003/10/2 11:45,20.8,0 ,64,0 ,23.3,0 ,58,0 ,22.4,0 ,20.5,0
2003/10/2 12:00,19.9,0 ,71,0 ,23.1,0 ,56,0 ,22.4,0 ,20.6,0
2003/10/2 12:15,19.5,0 ,72,0 ,23.3,0 ,58,0 ,22.3,0 ,20.7,0
2003/10/2 12:30,19.2,0 ,73,0 ,23.1,0 ,57,0 ,22.3,0 ,20.7,0
2003/10/2 12:45,19.4,0 ,72,0 ,23.3,0 ,59,0 ,22.3,0 ,20.7,0
2003/10/2 13:00,19.4,0 ,70,0 ,23.1,0 ,57,0 ,22.3,0 ,20.8,0
2003/10/2 13:15,19.7,0 ,63,0 ,23.3,0 ,59,0 ,22.3,0 ,20.8,0
2003/10/2 13:30,20.2,0 ,55,0 ,23.1,0 ,57,0 ,22.3,0 ,20.9,0
2003/10/2 13:45,20.9,0 ,48,0 ,23.3,0 ,58,0 ,22.3,0 ,20.9,0
2003/10/2 14:00,21.3,0 ,40,0 ,23.1,0 ,56,0 ,22.3,0 ,21,0
2003/10/2 14:15,21.5,0 ,41,0 ,23.2,0 ,57,0 ,22.3,0 ,21,0
2003/10/2 14:30,21.8,0 ,41,0 ,23.1,0 ,54,0 ,22.2,0 ,21.1,0
2003/10/2 14:45,21.5,0 ,44,0 ,23.3,0 ,57,0 ,22.2,0 ,21.1,0
2003/10/2 15:00,21.1,0 ,46,0 ,23.1,0 ,54,0 ,22.2,0 ,21.1,0
2003/10/2 15:15,20.7,0 ,44,0 ,23.3,0 ,56,0 ,22.2,0 ,21.2,0
2003/10/2 15:30,20.4,0 ,41,0 ,23.1,0 ,53,0 ,22.2,0 ,21.2,0
2003/10/2 15:45,20.1,0 ,39,0 ,23.2,0 ,55,0 ,22.2,0 ,21.2,0
2003/10/2 16:00,19.9,0 ,36,0 ,23,0 ,52,0 ,22.2,0 ,21.3,0
2003/10/2 16:15,19.8,0 ,36,0 ,23.2,0 ,54,0 ,22.1,0 ,21.3,0
2003/10/2 16:30,19.6,0 ,36,0 ,23,0 ,52,0 ,22.1,0 ,21.3,0
2003/10/2 16:45,19.5,0 ,37,0 ,23.2,0 ,53,0 ,22.1,0 ,21.4,0
2003/10/2 17:00,19.3,0 ,38,0 ,23,0 ,51,0 ,22,0 ,21.4,0
2003/10/2 17:15,19.2,0 ,39,0 ,23.1,0 ,53,0 ,22,0 ,21.4,0
2003/10/2 17:30,19.1,0 ,39,0 ,23,0 ,51,0 ,22,0 ,21.5,0
2003/10/2 17:45,19,0 ,39,0 ,23.1,0 ,53,0 ,22,0 ,21.5,0
2003/10/2 18:00,18.9,0 ,39,0 ,22.9,0 ,50,0 ,21.9,0 ,21.5,0
2003/10/2 18:15,18.7,0 ,38,0 ,23.1,0 ,52,0 ,21.9,0 ,21.5,0
2003/10/2 18:30,18.6,0 ,37,0 ,22.9,0 ,50,0 ,21.9,0 ,21.6,0
2003/10/2 18:45,18.5,0 ,38,0 ,23,0 ,52,0 ,21.9,0 ,21.6,0
2003/10/2 19:00,18.4,0 ,38,0 ,22.8,0 ,49,0 ,21.8,0 ,21.6,0
2003/10/2 19:15,18.3,0 ,39,0 ,23,0 ,51,0 ,21.8,0 ,21.6,0
2003/10/2 19:30,18.3,0 ,39,0 ,22.8,0 ,49,0 ,21.8,0 ,21.7,0
2003/10/2 19:45,18.2,0 ,41,0 ,23,0 ,50,0 ,21.8,0 ,20.8,0
2003/10/2 20:00,18,0 ,42,0 ,22.8,0 ,50,0 ,21.8,0 ,20.9,0
2003/10/2 20:15,18,0 ,44,0 ,23.2,0 ,58,0 ,22.2,0 ,20.2,0
2003/10/2 20:30,17.8,0 ,46,0 ,23.1,0 ,56,0 ,22.3,0 ,20.2,0
2003/10/2 20:45,17.6,0 ,46,0 ,23.4,0 ,56,0 ,22.3,0 ,20.3,0
2003/10/2 21:00,17.6,0 ,46,0 ,23.2,0 ,53,0 ,22.3,0 ,20.3,0
2003/10/2 21:15,17.6,0 ,47,0 ,23.3,0 ,55,0 ,22.3,0 ,20.3,0
2003/10/2 21:30,17.5,0 ,47,0 ,23.2,0 ,53,0 ,22.3,0 ,20.4,0
2003/10/2 21:45,17.4,0 ,51,0 ,23.3,0 ,55,0 ,22.3,0 ,20.4,0
2003/10/2 22:00,17.3,0 ,54,0 ,23.3,0 ,53,0 ,22.2,0 ,20.5,0
2003/10/2 22:15,16,0 ,58,0 ,24.1,0 ,55,0 ,22.6,0 ,20.5,0
2003/10/2 22:30,15.8,0 ,61,0 ,24.4,0 ,51,0 ,22.9,0 ,20.6,0
2003/10/2 22:45,15.2,0 ,64,0 ,25.2,0 ,54,0 ,23.1,0 ,19.6,0
2003/10/2 23:00,15,0 ,67,0 ,25,0 ,52,0 ,23.3,0 ,19.6,0
2003/10/2 23:15,14.8,0 ,70,0 ,25.3,0 ,56,0 ,23.5,0 ,19.7,0
2003/10/2 23:30,14.5,0 ,73,0 ,25.1,0 ,54,0 ,23.7,0 ,19.7,0
2003/10/2 23:45,14.3,0 ,70,0 ,25.4,0 ,57,0 ,23.9,0 ,19.7,0
2003/10/3 0:00,14.5,0 ,67,0 ,24.5,0 ,60,0 ,23.9,0 ,19.7,0
2003/10/3 0:15,15,0 ,67,0 ,24.2,0 ,65,0 ,23.7,0 ,19.7,0
2003/10/3 0:30,15.2,0 ,66,0 ,24,0 ,60,0 ,23.7,0 ,19.8,0
2003/10/3 0:45,15.2,0 ,63,0 ,23.8,0 ,60,0 ,23.5,0 ,19.8,0
2003/10/3 1:00,15.3,0 ,60,0 ,23.7,0 ,57,0 ,23.4,0 ,19.9,0
2003/10/3 1:15,15.5,0 ,59,0 ,23.7,0 ,60,0 ,23.3,0 ,19.9,0
2003/10/3 1:30,15.7,0 ,57,0 ,23.5,0 ,57,0 ,23.2,0 ,20,0
2003/10/3 1:45,15.8,0 ,60,0 ,23.5,0 ,59,0 ,23.1,0 ,20.1,0
2003/10/3 2:00,15.8,0 ,63,0 ,23.4,0 ,56,0 ,23,0 ,20.2,0
2003/10/3 2:15,15.3,0 ,63,0 ,23.5,0 ,58,0 ,22.9,0 ,20.2,0
2003/10/3 2:30,15.2,0 ,63,0 ,23.3,0 ,56,0 ,22.8,0 ,20.3,0
2003/10/3 2:45,15.1,0 ,59,0 ,23.4,0 ,58,0 ,22.8,0 ,20.3,0
2003/10/3 3:00,15.1,0 ,54,0 ,23.2,0 ,55,0 ,22.7,0 ,20.4,0
2003/10/3 3:15,15.5,0 ,56,0 ,23.3,0 ,57,0 ,22.7,0 ,20.5,0
2003/10/3 3:30,15.7,0 ,58,0 ,23.2,0 ,54,0 ,22.6,0 ,20.5,0
2003/10/3 3:45,15.5,0 ,56,0 ,23.3,0 ,56,0 ,22.5,0 ,20.6,0
2003/10/3 4:00,15.6,0 ,54,0 ,23.1,0 ,54,0 ,22.5,0 ,20.6,0
2003/10/3 4:15,15.7,0 ,60,0 ,23.3,0 ,56,0 ,22.4,0 ,20.7,0
2003/10/3 4:30,15.6,0 ,65,0 ,23.1,0 ,53,0 ,22.4,0 ,20.7,0
2003/10/3 4:45,15.1,0 ,68,0 ,23.2,0 ,55,0 ,22.4,0 ,20.8,0
2003/10/3 5:00,14.8,0 ,70,0 ,23.1,0 ,53,0 ,22.3,0 ,20.8,0
2003/10/3 5:15,14.6,0 ,70,0 ,23.2,0 ,55,0 ,22.3,0 ,20.9,0
2003/10/3 5:30,14.6,0 ,69,0 ,23,0 ,53,0 ,22.3,0 ,20.9,0
2003/10/3 5:45,14.6,0 ,70,0 ,23.1,0 ,54,0 ,22.2,0 ,20.9,0
2003/10/3 6:00,14.7,0 ,70,0 ,23,0 ,53,0 ,22.3,0 ,21,0
2003/10/3 6:15,14.6,0 ,70,0 ,23.2,0 ,57,0 ,22.3,0 ,19.7,0
2003/10/3 6:30,14.7,0 ,69,0 ,23,0 ,54,0 ,22.3,0 ,19.7,0
2003/10/3 6:45,14.7,0 ,70,0 ,23.2,0 ,57,0 ,22.3,0 ,19.8,0
2003/10/3 7:00,14.8,0 ,70,0 ,23,0 ,55,0 ,22.3,0 ,19.8,0
2003/10/3 7:15,14.7,0 ,71,0 ,23.2,0 ,57,0 ,22.3,0 ,19.8,0
2003/10/3 7:30,14.7,0 ,72,0 ,22.9,0 ,55,0 ,22.3,0 ,19.8,0
2003/10/3 7:45,14.8,0 ,73,0 ,23.1,0 ,57,0 ,22.3,0 ,19.9,0
2003/10/3 8:00,14.8,0 ,73,0 ,23,0 ,54,0 ,22.2,0 ,19.9,0
2003/10/3 8:15,13.9,0 ,72,0 ,24,0 ,56,0 ,22.5,0 ,20,0
2003/10/3 8:30,14.3,0 ,71,0 ,24.3,0 ,52,0 ,22.8,0 ,20,0
2003/10/3 8:45,15,0 ,65,0 ,25,0 ,53,0 ,23,0 ,19.4,0
2003/10/3 9:00,16.5,0 ,59,0 ,24.2,0 ,52,0 ,23,0 ,19.4,0
2003/10/3 9:15,16.7,0 ,55,0 ,23.9,0 ,56,0 ,22.9,0 ,19.5,0
2003/10/3 9:30,17.2,0 ,51,0 ,23.8,0 ,59,0 ,22.9,0 ,19.4,0
2003/10/3 9:45,18.2,0 ,45,0 ,24.1,0 ,62,0 ,23.2,0 ,19.4,0
2003/10/3 10:00,19,0 ,38,0 ,23.8,0 ,58,0 ,23.2,0 ,19.6,0
2003/10/3 10:15,19.2,0 ,43,0 ,25,0 ,58,0 ,23.3,0 ,19.6,0
2003/10/3 10:30,18.7,0 ,48,0 ,25.3,0 ,52,0 ,23.6,0 ,19.7,0
2003/10/3 10:45,18.3,0 ,46,0 ,24.5,0 ,57,0 ,23.7,0 ,19.8,0
2003/10/3 11:00,18.6,0 ,44,0 ,24.1,0 ,55,0 ,23.6,0 ,19.9,0
2003/10/3 11:15,18.7,0 ,45,0 ,24,0 ,58,0 ,23.5,0 ,19.9,0
2003/10/3 11:30,18.5,0 ,46,0 ,23.8,0 ,56,0 ,23.5,0 ,20,0
2003/10/3 11:45,18.2,0 ,46,0 ,23.8,0 ,58,0 ,23.4,0 ,20,0
2003/10/3 12:00,18,0 ,46,0 ,23.6,0 ,56,0 ,23.4,0 ,20.1,0
2003/10/3 12:15,18.1,0 ,42,0 ,23.7,0 ,58,0 ,23.3,0 ,20.2,0
2003/10/3 12:30,18.5,0 ,38,0 ,23.5,0 ,55,0 ,23.3,0 ,20.2,0
2003/10/3 12:45,18.9,0 ,39,0 ,23.6,0 ,58,0 ,23.3,0 ,20.3,0
2003/10/3 13:00,19.1,0 ,39,0 ,23.5,0 ,55,0 ,23.2,0 ,20.3,0
2003/10/3 13:15,19,0 ,41,0 ,23.6,0 ,57,0 ,23.2,0 ,20.4,0
2003/10/3 13:30,18.7,0 ,42,0 ,23.4,0 ,54,0 ,23.1,0 ,20.4,0
2003/10/3 13:45,18.6,0 ,40,0 ,23.5,0 ,57,0 ,23.1,0 ,20.5,0
2003/10/3 14:00,18.8,0 ,38,0 ,23.3,0 ,54,0 ,23,0 ,20.5,0
2003/10/3 14:15,19.1,0 ,37,0 ,23.4,0 ,56,0 ,22.9,0 ,20.6,0
2003/10/3 14:30,19.1,0 ,36,0 ,23.3,0 ,53,0 ,22.8,0 ,20.7,0
2003/10/3 14:45,19.3,0 ,40,0 ,23.4,0 ,54,0 ,22.8,0 ,20.7,0
2003/10/3 15:00,19.4,0 ,44,0 ,23.2,0 ,52,0 ,22.7,0 ,20.7,0
2003/10/3 15:15,18.7,0 ,47,0 ,23.4,0 ,54,0 ,22.6,0 ,20.8,0
2003/10/3 15:30,18.3,0 ,50,0 ,23.2,0 ,51,0 ,22.6,0 ,20.8,0
2003/10/3 15:45,17.9,0 ,49,0 ,23.3,0 ,54,0 ,22.5,0 ,20.9,0
2003/10/3 16:00,17.7,0 ,47,0 ,23.2,0 ,51,0 ,22.5,0 ,20.9,0
2003/10/3 16:15,17.7,0 ,50,0 ,23.3,0 ,53,0 ,22.5,0 ,21,0
2003/10/3 16:30,17.6,0 ,53,0 ,23.1,0 ,51,0 ,22.4,0 ,21,0
2003/10/3 16:45,17.2,0 ,54,0 ,23.3,0 ,53,0 ,22.4,0 ,21,0
2003/10/3 17:00,16.8,0 ,55,0 ,23.1,0 ,51,0 ,22.3,0 ,21.1,0
2003/10/3 17:15,16.5,0 ,56,0 ,23.2,0 ,53,0 ,22.3,0 ,21.1,0
2003/10/3 17:30,16.3,0 ,57,0 ,23,0 ,51,0 ,22.2,0 ,21.2,0
2003/10/3 17:45,16.1,0 ,58,0 ,23.1,0 ,53,0 ,22.2,0 ,21.2,0
2003/10/3 18:00,16,0 ,58,0 ,23,0 ,50,0 ,22.1,0 ,21.2,0
2003/10/3 18:15,15.8,0 ,61,0 ,23.1,0 ,52,0 ,22.1,0 ,21.2,0
2003/10/3 18:30,15.7,0 ,63,0 ,22.8,0 ,50,0 ,22.1,0 ,21.3,0
2003/10/3 18:45,15.5,0 ,63,0 ,23,0 ,52,0 ,22,0 ,21.3,0
2003/10/3 19:00,15.3,0 ,62,0 ,22.8,0 ,50,0 ,22,0 ,21.3,0
2003/10/3 19:15,15.2,0 ,62,0 ,23,0 ,52,0 ,21.9,0 ,21.4,0
2003/10/3 19:30,15.2,0 ,62,0 ,22.8,0 ,50,0 ,21.9,0 ,21.4,0
2003/10/3 19:45,15.2,0 ,64,0 ,22.9,0 ,52,0 ,21.9,0 ,21.4,0
2003/10/3 20:00,14.9,0 ,65,0 ,22.7,0 ,50,0 ,21.8,0 ,21.4,0
2003/10/3 20:15,14.7,0 ,66,0 ,22.9,0 ,52,0 ,21.8,0 ,21.5,0
2003/10/3 20:30,14.5,0 ,67,0 ,22.7,0 ,49,0 ,21.8,0 ,21.5,0
2003/10/3 20:45,14.3,0 ,66,0 ,22.8,0 ,52,0 ,21.7,0 ,21.5,0
2003/10/3 21:00,14.3,0 ,64,0 ,22.6,0 ,49,0 ,21.7,0 ,21.5,0
2003/10/3 21:15,14.2,0 ,69,0 ,22.8,0 ,51,0 ,21.7,0 ,21.5,0
2003/10/3 21:30,13.6,0 ,73,0 ,22.6,0 ,49,0 ,21.7,0 ,21.5,0
2003/10/3 21:45,13.2,0 ,71,0 ,22.7,0 ,51,0 ,21.6,0 ,21.6,0
2003/10/3 22:00,13.3,0 ,68,0 ,22.5,0 ,49,0 ,21.6,0 ,21.6,0
2003/10/3 22:15,13.6,0 ,66,0 ,22.7,0 ,51,0 ,21.6,0 ,21.6,0
2003/10/3 22:30,13.8,0 ,63,0 ,22.5,0 ,49,0 ,21.5,0 ,21.6,0
2003/10/3 22:45,14,0 ,64,0 ,22.7,0 ,51,0 ,21.5,0 ,21.6,0
2003/10/3 23:00,14.1,0 ,65,0 ,22.5,0 ,49,0 ,21.5,0 ,21.6,0
2003/10/3 23:15,13.8,0 ,63,0 ,22.6,0 ,50,0 ,21.5,0 ,21.7,0
2003/10/3 23:30,14,0 ,61,0 ,22.4,0 ,48,0 ,21.4,0 ,21.7,0
2003/10/3 23:45,14,0 ,58,0 ,22.6,0 ,50,0 ,21.4,0 ,21.7,0
2003/10/4 0:00,14.4,0 ,54,0 ,22.4,0 ,48,0 ,21.4,0 ,21.7,0
2003/10/4 0:15,14.8,0 ,54,0 ,22.6,0 ,50,0 ,21.3,0 ,21.7,0
2003/10/4 0:30,14.8,0 ,54,0 ,22.3,0 ,49,0 ,21.3,0 ,21.7,0
2003/10/4 0:45,14.9,0 ,53,0 ,22.5,0 ,50,0 ,21.3,0 ,21.7,0
2003/10/4 1:00,14.9,0 ,51,0 ,22.3,0 ,48,0 ,21.3,0 ,21.7,0
2003/10/4 1:15,14.8,0 ,52,0 ,22.5,0 ,50,0 ,21.2,0 ,21.7,0
2003/10/4 1:30,14.7,0 ,53,0 ,22.2,0 ,48,0 ,21.2,0 ,21.7,0
2003/10/4 1:45,14.7,0 ,56,0 ,22.5,0 ,49,0 ,21.2,0 ,21.7,0
2003/10/4 2:00,14.5,0 ,59,0 ,22.2,0 ,48,0 ,21.2,0 ,21.8,0
2003/10/4 2:15,14.3,0 ,60,0 ,22.5,0 ,49,0 ,21.2,0 ,21.8,0
2003/10/4 2:30,14,0 ,61,0 ,22.2,0 ,48,0 ,21.1,0 ,21.8,0
2003/10/4 2:45,13.9,0 ,63,0 ,22.4,0 ,49,0 ,21.1,0 ,21.8,0
2003/10/4 3:00,13.7,0 ,65,0 ,22.2,0 ,48,0 ,21.1,0 ,21.8,0
2003/10/4 3:15,13.6,0 ,67,0 ,22.3,0 ,49,0 ,21.1,0 ,21.8,0
2003/10/4 3:30,13.4,0 ,69,0 ,22.2,0 ,47,0 ,21.1,0 ,21.8,0
2003/10/4 3:45,13.2,0 ,68,0 ,22.3,0 ,49,0 ,21,0 ,21.8,0
2003/10/4 4:00,13.3,0 ,67,0 ,22.1,0 ,47,0 ,21,0 ,21.8,0
2003/10/4 4:15,13.5,0 ,67,0 ,22.3,0 ,49,0 ,21,0 ,21.8,0
2003/10/4 4:30,13.7,0 ,66,0 ,22.1,0 ,47,0 ,21,0 ,21.8,0
2003/10/4 4:45,13.4,0 ,69,0 ,22.3,0 ,49,0 ,21,0 ,21.8,0
2003/10/4 5:00,13.1,0 ,71,0 ,22,0 ,47,0 ,21,0 ,21.8,0
2003/10/4 5:15,12.9,0 ,72,0 ,22.2,0 ,49,0 ,20.9,0 ,21.8,0
2003/10/4 5:30,12.6,0 ,73,0 ,22,0 ,47,0 ,20.9,0 ,21.8,0
2003/10/4 5:45,12.5,0 ,73,0 ,22.2,0 ,49,0 ,20.9,0 ,21.8,0
2003/10/4 6:00,12.5,0 ,72,0 ,22,0 ,47,0 ,20.9,0 ,21.8,0
2003/10/4 6:15,12.4,0 ,73,0 ,22.2,0 ,49,0 ,20.9,0 ,21.8,0
2003/10/4 6:30,12.5,0 ,73,0 ,22,0 ,47,0 ,20.9,0 ,21.8,0
2003/10/4 6:45,12.4,0 ,73,0 ,22.2,0 ,49,0 ,20.8,0 ,21.8,0
2003/10/4 7:00,12.4,0 ,72,0 ,21.9,0 ,48,0 ,20.8,0 ,21.8,0
2003/10/4 7:15,12.7,0 ,70,0 ,22.2,0 ,49,0 ,20.8,0 ,21.8,0
2003/10/4 7:30,13.1,0 ,67,0 ,22,0 ,48,0 ,20.8,0 ,21.8,0
2003/10/4 7:45,13.6,0 ,65,0 ,22.2,0 ,50,0 ,20.8,0 ,21.8,0
2003/10/4 8:00,14.2,0 ,62,0 ,22.1,0 ,48,0 ,20.8,0 ,21.8,0
2003/10/4 8:15,14.5,0 ,60,0 ,22.3,0 ,50,0 ,20.8,0 ,21.8,0
2003/10/4 8:30,15.1,0 ,57,0 ,22.2,0 ,48,0 ,20.9,0 ,21.8,0
2003/10/4 8:45,15.9,0 ,56,0 ,22.4,0 ,50,0 ,20.9,0 ,21.8,0
2003/10/4 9:00,16.6,0 ,54,0 ,22.2,0 ,48,0 ,20.9,0 ,21.8,0
2003/10/4 9:15,17.2,0 ,48,0 ,22.4,0 ,50,0 ,21,0 ,21.8,0
2003/10/4 9:30,18.2,0 ,42,0 ,22.3,0 ,48,0 ,21,0 ,21.8,0
2003/10/4 9:45,19.3,0 ,40,0 ,22.4,0 ,50,0 ,21,0 ,21.8,0
2003/10/4 10:00,19.9,0 ,37,0 ,22.2,0 ,47,0 ,21,0 ,21.8,0
2003/10/4 10:15,19.7,0 ,40,0 ,22.4,0 ,49,0 ,21,0 ,21.8,0
2003/10/4 10:30,19.2,0 ,42,0 ,22.2,0 ,47,0 ,21,0 ,21.8,0
2003/10/4 10:45,18.9,0 ,41,0 ,22.4,0 ,49,0 ,21,0 ,21.8,0
2003/10/4 11:00,19.2,0 ,39,0 ,22.2,0 ,47,0 ,21,0 ,21.8,0
2003/10/4 11:15,18.9,0 ,38,0 ,22.4,0 ,49,0 ,21,0 ,21.8,0
2003/10/4 11:30,19.1,0 ,37,0 ,22.3,0 ,47,0 ,21,0 ,21.8,0
2003/10/4 11:45,19.3,0 ,42,0 ,22.4,0 ,49,0 ,21,0 ,21.8,0
2003/10/4 12:00,19.2,0 ,47,0 ,22.2,0 ,47,0 ,21,0 ,21.8,0
2003/10/4 12:15,18.3,0 ,48,0 ,22.4,0 ,49,0 ,21,0 ,21.8,0
2003/10/4 12:30,18.3,0 ,48,0 ,22.2,0 ,47,0 ,21,0 ,21.8,0
2003/10/4 12:45,18,0 ,47,0 ,22.4,0 ,49,0 ,21,0 ,21.8,0
2003/10/4 13:00,18,0 ,46,0 ,22.2,0 ,47,0 ,21,0 ,21.8,0
2003/10/4 13:15,18,0 ,50,0 ,22.3,0 ,49,0 ,21,0 ,21.8,0
2003/10/4 13:30,17.9,0 ,53,0 ,22.2,0 ,47,0 ,21,0 ,21.8,0
2003/10/4 13:45,18.2,0 ,50,0 ,22.4,0 ,49,0 ,21,0 ,21.8,0
2003/10/4 14:00,18.3,0 ,46,0 ,22.2,0 ,47,0 ,21,0 ,21.8,0
2003/10/4 14:15,18.4,0 ,46,0 ,22.3,0 ,49,0 ,21,0 ,21.8,0
2003/10/4 14:30,18.5,0 ,46,0 ,22.2,0 ,47,0 ,21,0 ,21.8,0
2003/10/4 14:45,18.5,0 ,44,0 ,22.3,0 ,49,0 ,21,0 ,21.8,0
2003/10/4 15:00,18.6,0 ,42,0 ,22.2,0 ,47,0 ,21,0 ,21.8,0
2003/10/4 15:15,18.8,0 ,42,0 ,22.3,0 ,49,0 ,21,0 ,21.9,0
2003/10/4 15:30,19.1,0 ,42,0 ,22.2,0 ,47,0 ,21,0 ,21.9,0
2003/10/4 15:45,19,0 ,42,0 ,22.4,0 ,49,0 ,21,0 ,21.9,0
2003/10/4 16:00,18.9,0 ,41,0 ,22.2,0 ,47,0 ,21,0 ,21.9,0
2003/10/4 16:15,18.8,0 ,42,0 ,22.3,0 ,49,0 ,21,0 ,21.9,0
2003/10/4 16:30,18.8,0 ,43,0 ,22.2,0 ,47,0 ,21,0 ,21.9,0
2003/10/4 16:45,18.6,0 ,44,0 ,22.3,0 ,49,0 ,21,0 ,21.9,0
2003/10/4 17:00,18.1,0 ,45,0 ,22.1,0 ,47,0 ,21,0 ,21.9,0
2003/10/4 17:15,17.7,0 ,47,0 ,22.2,0 ,49,0 ,21,0 ,21.9,0
2003/10/4 17:30,17.3,0 ,49,0 ,22.1,0 ,47,0 ,21,0 ,21.9,0
2003/10/4 17:45,17,0 ,51,0 ,22.2,0 ,49,0 ,21,0 ,21.9,0
2003/10/4 18:00,16.7,0 ,53,0 ,22,0 ,47,0 ,20.9,0 ,21.9,0
2003/10/4 18:15,16.9,0 ,53,0 ,21.9,0 ,43,0 ,20.9,0 ,20.4,0
2003/10/4 18:30,16.7,0 ,53,0 ,21.7,0 ,42,0 ,20.8,0 ,20.4,0
2003/10/4 18:45,16.5,0 ,52,0 ,21.9,0 ,44,0 ,20.6,0 ,20.4,0
2003/10/4 19:00,16.4,0 ,51,0 ,21.8,0 ,44,0 ,20.7,0 ,19.5,0
2003/10/4 19:15,16.4,0 ,52,0 ,22,0 ,48,0 ,20.8,0 ,19.5,0
2003/10/4 19:30,16.4,0 ,52,0 ,21.8,0 ,46,0 ,20.8,0 ,19.6,0
2003/10/4 19:45,15.8,0 ,57,0 ,22.1,0 ,50,0 ,20.9,0 ,19.6,0
2003/10/4 20:00,15.1,0 ,62,0 ,21.9,0 ,49,0 ,21,0 ,19.2,0
2003/10/4 20:15,14.6,0 ,62,0 ,22.1,0 ,51,0 ,21,0 ,19.3,0
2003/10/4 20:30,14.5,0 ,62,0 ,21.9,0 ,49,0 ,21.1,0 ,19.3,0
2003/10/4 20:45,14.5,0 ,62,0 ,22.2,0 ,55,0 ,21.2,0 ,19.4,0
2003/10/4 21:00,14.5,0 ,62,0 ,22.1,0 ,54,0 ,21.4,0 ,19.4,0
2003/10/4 21:15,14.5,0 ,65,0 ,22.2,0 ,56,0 ,21.5,0 ,19.4,0
2003/10/4 21:30,14.1,0 ,67,0 ,22.1,0 ,54,0 ,21.6,0 ,19.5,0
2003/10/4 21:45,13.9,0 ,68,0 ,22.3,0 ,57,0 ,21.8,0 ,19.5,0
2003/10/4 22:00,13.8,0 ,68,0 ,22.1,0 ,54,0 ,21.9,0 ,19.6,0
2003/10/4 22:15,13.6,0 ,69,0 ,22.3,0 ,57,0 ,22,0 ,19.6,0
2003/10/4 22:30,13.4,0 ,69,0 ,22.2,0 ,54,0 ,22.1,0 ,19.5,0
2003/10/4 22:45,13.2,0 ,71,0 ,22.3,0 ,57,0 ,22.3,0 ,19.5,0
2003/10/4 23:00,13,0 ,72,0 ,22.2,0 ,54,0 ,22.4,0 ,19.5,0
2003/10/4 23:15,13,0 ,74,0 ,22.4,0 ,56,0 ,22.5,0 ,19.6,0
2003/10/4 23:30,13,0 ,75,0 ,22.2,0 ,54,0 ,22.6,0 ,19.6,0
2003/10/4 23:45,12.6,0 ,76,0 ,22.6,0 ,59,0 ,22.7,0 ,19.7,0
2003/10/5 0:00,12.5,0 ,76,0 ,22.2,0 ,56,0 ,22.6,0 ,19.7,0
2003/10/5 0:15,12.5,0 ,75,0 ,22.3,0 ,57,0 ,22.5,0 ,19.8,0
2003/10/5 0:30,12.5,0 ,74,0 ,22.1,0 ,54,0 ,22.4,0 ,19.8,0
2003/10/5 0:45,12.5,0 ,76,0 ,22.3,0 ,55,0 ,22.3,0 ,19.8,0
2003/10/5 1:00,12.5,0 ,78,0 ,22.1,0 ,52,0 ,22.2,0 ,19.9,0
2003/10/5 1:15,12.4,0 ,78,0 ,22.2,0 ,54,0 ,22.2,0 ,19.9,0
2003/10/5 1:30,12.6,0 ,77,0 ,22.1,0 ,51,0 ,22.1,0 ,20,0
2003/10/5 1:45,12.6,0 ,72,0 ,22.2,0 ,54,0 ,22,0 ,20,0
2003/10/5 2:00,12.8,0 ,67,0 ,22.1,0 ,51,0 ,22,0 ,20.1,0
2003/10/5 2:15,13.1,0 ,71,0 ,22.2,0 ,53,0 ,21.9,0 ,20.1,0
2003/10/5 2:30,13.1,0 ,74,0 ,22,0 ,51,0 ,21.9,0 ,20.1,0
2003/10/5 2:45,12.9,0 ,75,0 ,22.1,0 ,53,0 ,21.9,0 ,20.2,0
2003/10/5 3:00,12.6,0 ,75,0 ,22,0 ,50,0 ,21.8,0 ,20.2,0
2003/10/5 3:15,12.5,0 ,75,0 ,22.1,0 ,53,0 ,21.8,0 ,20.3,0
2003/10/5 3:30,12.4,0 ,75,0 ,21.9,0 ,50,0 ,21.8,0 ,20.3,0
2003/10/5 3:45,12.2,0 ,77,0 ,22.1,0 ,52,0 ,21.7,0 ,20.3,0
2003/10/5 4:00,11.9,0 ,78,0 ,21.9,0 ,50,0 ,21.7,0 ,20.4,0
2003/10/5 4:15,11.7,0 ,78,0 ,22,0 ,52,0 ,21.7,0 ,20.4,0
2003/10/5 4:30,11.8,0 ,77,0 ,21.8,0 ,50,0 ,21.6,0 ,20.5,0
2003/10/5 4:45,11.8,0 ,78,0 ,22,0 ,52,0 ,21.6,0 ,20.5,0
2003/10/5 5:00,11.7,0 ,78,0 ,21.9,0 ,49,0 ,21.6,0 ,20.5,0
2003/10/5 5:15,11.5,0 ,79,0 ,22,0 ,52,0 ,21.5,0 ,20.5,0